Location: Unspecified
(0.0000°N, 0.0000°E)
Time: 07:32:09
(UTC+00:00)

Envisat - Visible Passes

Search period start: 17 February 2020 00:00
Search period end: 27 February 2020 00:00
Orbit: 764 x 766 km, 98.1° (Epoch: 17 February)

Date Brightness Start Highest point End Pass type
(mag) Time Alt. Az. Time Alt. Az. Time Alt. Az.
17 Feb 5.5 05:33:03 10° NE 05:37:14 26° ESE 05:41:26 10° SSE visible
18 Feb 5.8 19:06:40 10° SSW 19:10:24 21° WSW 19:14:09 10° NW visible
19 Feb 3.8 18:28:45 10° S 18:33:45 60° WSW 18:38:43 10° NNW visible
20 Feb 6.0 05:22:24 10° ENE 05:25:59 19° ESE 05:29:33 10° SSE visible
21 Feb 5.3 18:54:50 10° SSW 18:59:09 28° WSW 19:03:27 10° NW visible
22 Feb 4.7 05:46:39 10° NNE 05:51:22 40° ESE 05:56:06 10° S visible
23 Feb 6.4 05:12:06 10° ENE 05:14:43 14° ESE 05:17:20 10° SE visible
23 Feb 6.4 19:22:06 10° SW 19:24:32 13° WSW 19:26:58 10° WNW visible
24 Feb 4.7 18:43:12 10° S 18:47:53 38° WSW 18:52:34 10° NW visible
25 Feb 5.3 05:35:44 10° NE 05:40:06 29° ESE 05:44:29 10° SSE visible
26 Feb 6.0 19:09:49 10° SW 19:13:16 19° WSW 19:16:44 10° WNW visible
